[Date Prev][Date Next][Thread Prev][Thread Next] - [Date Index][Thread Index][Author Index]

2 Line ISS Keps 10-30



ISS
1 25544U 98067A   05304.36489723  .00014418  00000-0  10161-3 0  6553
2 25544 051.6433 283.0498 0001919 095.1770 064.5383 15.74373727397113
----
Via the sarex mailing list at AMSAT.ORG courtesy of AMSAT-NA.
To unsubscribe, send "unsubscribe sarex" to Majordomo@amsat.org



AMSAT Top AMSAT Home